User: anonymous   Login
Location: Almena City Lake
(39.8850°N, 99.6804°W)
Time: 21:29:47
(UTC+00:00)
Language:

STARLINK-25 - Orbit

View from above orbital plane
View from above orbital plane
View from above satellite
View from above satellite

Ground track
Ground track

The orbit data is extracted from the following two-line orbital elements,

1 44239U 19029E   20158.58334491 -.00007297 +00000-0 -14938-3 0  9991
2 44239 053.0065 258.4913 0001222 086.3101 216.4587 15.43858945001771
Epoch (UTC): 06 June 2020 14:00:01
Eccentricity: 0.0001222
inclination: 53.0065°
perigee height: 434 km
apogee height: 435 km
right ascension of ascending node: 258.4913°
argument of perigee: 86.3101°
revolutions per day: 15.43858945
mean anomaly at epoch: 216.4587°
orbit number at epoch: 177

The dashed part of the orbit path shows where the satellite is in the earth's shadow,  

DLR